Location: Vihti�l�
(61.3833°N, 23.0667°E)
Time: 02:53:37
(UTC+00:00)

H-2A R/B - Pass Details

Date: 29 November 2020
Orbit: 499 x 540 km, 97.3° (Epoch: 14 January)

Event Time Altitude Azimuth Distance (km) Brightness Sun altitude
Rises 06:04:41 0° 12° (NNE) 2,720 6.1 -6.9°
Reaches altitude 10° 06:07:10 10° 357° (N) 1,822 5.1 -6.6°
Maximum altitude 06:10:10 21° 307° (NW) 1,250 4.0 -6.3°
Drops below altitude 10° 06:13:09 10° 257° (WSW) 1,808 5.1 -6.0°
Sets 06:15:37 0° 242° (WSW) 2,691 6.1 -5.8°
